CAPE
173 671 1038 1361 1544 1739 1739 1905 1890 1861 1827 1641 1477 1602 1597 1702 1794 1701 1706 1696 1652 1646 1505 1613 1463 1375 1493 1377 1353 1452 1582 1468 1521 1229 1097 1492 1505 1488 1387 1452 1447 1440 1907
582 902 1101 1546 1626 1770 1833 1912 1918 1923 1756 1745 1610 1680 1690 1727 1700 1750 1671 1634 1644 1540 1552 1703 1334 1000 1560 1462 1526 1573 1542 1210 1157 1398 1468 1433 1667 1604 1503 1250 1224 1750 2083
770 743 1114 1419 1669 1754 1868 1908 1770 1832 1642 1718 1538 1465 1823 1694 1790 1708 1842 1657 1611 1332 1319 1264 1182 1423 1421 1426 1332 1324 1535 1294 1265 1348 1136 633 991 1787 1388 1366 1571 1626 1826
667 956 1030 1383 1682 1715 1841 1739 1622 1769 1760 1667 1632 1691 1646 1556 1755 1742 1751 1745 1469 1369 1267 1296 1583 1642 1679 1705 1715 1651 1237 457 492 1071 878 645 661 1696 1706 1431 1519 1364 1430
599 995 1238 1399 1430 1613 1723 1617 1568 1568 1770 1825 1850 1813 1805 1775 1796 1799 1673 1384 1369 1370 1452 1441 1474 1521 1283 1241 1418 1600 1529 1300 1098 984 691 549 429 1075 1401 1241 1270 1717 1273
995 1119 1208 1510 1562 1504 1485 1691 1743 1855 1794 1913 1926 1679 1907 1423 1199 1085 978 1125 1360 1405 1390 1373 1349 1103 1121 1436 1455 1659 1616 1529 1625 646 529 488 595 937 1027 1106 1089 1209 1262
846 862 1246 1575 1540 999 1286 1702 1956 1701 1791 1881 1943 2016 1451 1143 980 826 830 911 923 963 1049 1050 1026 1195 1308 1109 1103 1124 805 1199 1851 629 707 450 759 1351 1318 1021 1175 1100 1181
736 929 953 848 1361 1691 945 1568 1837 1758 1884 2061 1868 1392 1188 1023 856 683 616 691 764 831 827 743 1102 1085 924 908 849 623 709 989 818 766 574 592 866 1336 1534 1397 995 1285 1180
363 712 578 164 1148 1576 1614 737 1412 1424 1715 1741 1432 1255 1057 859 684 517 386 337 400 617 721 747 802 828 620 507 595 572 527 873 1512 343 346 245 852 1732 1438 1200 783 656 746
130 325 32 639 962 1201 481 858 1088 1221 1292 1181 999 811 600 354 233 96 147 260 353 387 467 526 537 424 516 703 569 376 707 1290 1735 524 307 112 336 1394 1413 1451 1006 1108 960
66 91 118 854 944 777 406 685 584 705 735 547 340 251 767 726 839 812 530 91 320 332 321 354 373 425 844 1018 1030 733 684 1426 1049 834 294 7 76 543 1193 1606 1071 1130 1233
0 10 174 276 179 218 16 330 111 60 345 568 718 1729 1921 1535 1536 1031 321 123 336 379 315 254 420 693 1567 1620 1559 1041 1338 939 990 817 343 23 120 322 547 593 710 266 428
0 0 51 0 21 78 91 138 135 360 753 1607 2353 2651 2362 2261 1746 1781 1901 1602 2303 1664 2276 1657 1956 2254 1323 1052 593 741 949 882 657 583 371 23 88 449 722 1008 885 907 703
0 0 0 2 70 50 145 162 244 340 1392 1584 2401 2701 2277 2558 1705 1867 1488 1460 1970 1770 1634 1667 1548 2198 1563 896 747 792 643 424 647 880 317 58 40 139 321 881 707 170 431
0 0 0 82 253 245 303 525 311 615 855 1292 1744 2042 1853 1387 1709 1449 1306 1443 1291 1368 1205 1400 1102 820 658 614 732 610 761 815 1026 1110 1045 505 314 120 216 434 593 135 120
0 0 0 127 348 382 813 567 563 649 1248 1169 978 1347 1662 1821 2235 1314 1275 1117 1023 1017 1295 1496 1570 1178 994 822 842 1025 1028 878 938 1091 1061 1263 630 326 237 235 618 912 731
0 0 0 17 154 525 878 793 614 520 578 656 768 1380 1244 1830 2073 1838 862 733 748 1154 1883 1508 1208 988 905 747 957 963 927 970 606 1033 1115 1205 1346 571 348 336 467 582 1177
0 0 0 3 3 147 361 411 236 338 422 361 371 547 1287 1346 1415 1727 567 496 1742 870 694 746 614 543 317 318 112 90 223 494 558 633 770 901 963 1499 795 577 596 620 776
0 0 0 0 5 3 475 276 247 405 564 366 183 193 1293 1125 743 1332 544 541 1565 861 479 554 407 559 414 315 101 88 96 115 175 168 370 422 387 645 1170 726 777 697 722
0 0 0 0 5 6 292 505 318 75 165 119 105 153 880 692 1029 1030 362 522 955 624 361 1376 1727 711 697 305 357 242 245 173 102 91 180 169 57 523 269 1474 1384 1324 854
2 0 0 129 378 512 313 96 52 101 48 39 70 153 1156 995 970 1322 866 302 584 656 1625 1350 1291 1355 1000 594 675 482 232 99 148 103 109 150 109 99 255 216 572 523 1227
313 317 62 133 597 799 444 289 229 112 97 35 115 1341 1725 1767 1837 1841 1799 1290 1409 1945 1372 1285 1550 1072 840 805 868 792 614 177 455 311 268 215 1369 739 577 513 945 1273 1279
573 648 702 608 531 876 630 685 790 730 922 796 401 837 933 1951 2078 2046 2083 1929 1906 1741 1338 1011 1109 486 441 428 516 830 510 568 613 220 610 134 554 5 0 0 0 0 866
726 743 995 1269 1292 1095 1165 1005 1183 1148 631 263 218 246 1627 1750 1560 1546 1766 1813 1729 1400 1018 885 1000 1026 389 250 331 450 790 759 102 0 2 0 0 0 0 0 0 0 14
577 690 939 1483 1746 1731 1510 1556 1244 1439 1228 1242 1081 1019 1659 1606 1146 873 996 750 747 585 448 313 241 351 358 325 243 80 33 0 33 1 0 0 0 0 0 0 0 0 0
455 669 811 1522 2104 2247 1853 1631 1171 792 797 848 667 958 880 658 357 30 23 40 5 2 0 0 0 0 0 0 0 0 0 0 0 0 0 0 0 0 0 0 0 0 0
CIN
-37 -14 -12 -0 -0 -0 -0 -0 -0 -0 -0 -0 -0 -0 -0 -0 -0 -0 -0 -0 -0 -0 -1 -0 -0 -1 -0 -0 -0 -0 -0 -4 -14 -29 -42 -26 -17 -21 -15 -8 -15 -2 -3
-4 -1 -9 -0 -0 -0 -0 -0 -0 -0 -0 -0 -0 -0 -0 -0 -0 -0 -1 -0 -0 -0 -0 -0 -1 -3 -0 -0 -0 -0 -0 -20 -24 -26 -18 -21 -2 -5 -9 -16 -3 -4 -0
-1 -7 -0 -0 -0 -0 -0 -0 -0 -0 -0 -0 -1 -1 -0 -0 -0 -0 -0 -0 -0 -0 -0 -0 -1 -0 -0 -0 -0 -0 -1 -16 -35 -29 -8 -2 -1 -0 -18 -24 -16 -4 -0
-6 -2 -1 -1 -0 -0 -0 -0 -1 -0 -0 -0 -0 -0 -0 -1 -0 -0 -0 -0 -0 -0 -0 -0 -0 -0 -0 -0 -0 -0 -13 -62 -67 -36 -48 -15 -2 -0 -1 -18 -14 -12 -5
-2 -5 -6 -0 -0 -0 -0 -0 -1 -1 -0 -0 -0 -0 -0 -0 -0 -0 -0 -0 -0 -0 -0 -0 -0 -3 -13 -14 -6 -3 -14 -26 -29 -27 -3 -3 -20 -30 -13 -10 -10 -1 -8
-13 -10 -7 -0 -0 -1 -2 -0 -0 -0 -0 -0 -0 -0 -0 -1 -10 -12 -22 -14 -4 -1 -3 -6 -13 -25 -31 -18 -15 -11 -22 -25 -38 -0 -4 -7 -19 -61 -47 -19 -16 -21 -19
-9 -1 -1 -0 -0 -12 -7 -0 -0 -0 -0 -0 -0 -0 -5 -21 -33 -54 -54 -42 -45 -42 -38 -39 -39 -31 -31 -36 -44 -49 -70 -52 -27 -2 -1 -20 -80 -47 -37 -56 -44 -39 -28
-5 -3 -3 -24 -1 -0 -28 -1 -0 -0 -0 -0 -0 -9 -28 -36 -59 -87 -97 -87 -76 -68 -71 -76 -49 -55 -69 -73 -91 -110 -101 -73 -6 -4 -8 -32 -102 -63 -42 -39 -57 -40 -54
-24 -9 -26 -214 -8 -4 -1 -66 -7 -5 -0 -0 -9 -20 -46 -75 -111 -135 -151 -158 -128 -101 -98 -90 -88 -95 -116 -142 -135 -131 -123 -76 -44 -24 -15 -95 -135 -45 -45 -62 -99 -105 -91
-81 -40 -226 -10 -1 -2 -70 -57 -34 -18 -21 -31 -53 -80 -110 -141 -168 -205 -204 -188 -162 -158 -143 -136 -140 -160 -140 -136 -143 -137 -106 -85 -32 -16 -34 -125 -196 -84 -65 -35 -64 -45 -64
-118 -145 -136 -4 -2 -1 -58 -59 -87 -84 -73 -88 -110 -123 -96 -27 -64 -77 -129 -204 -174 -176 -184 -182 -177 -156 -124 -114 -108 -94 -114 -12 -2 -2 -64 -116 -260 -179 -97 -44 -68 -42 -42
-0 -131 -75 -44 -129 -102 -265 -63 -148 -160 -35 -9 -8 -5 -24 -2 -4 -13 -94 -176 -153 -149 -165 -175 -149 -116 -73 -12 -52 -64 -35 -2 -4 -2 -90 -247 -255 -213 -169 -143 -120 -170 -126
-0 -0 -102 -0 -182 -116 -165 -99 -81 -5 -7 -1 -1 -4 -3 -1 -6 -17 -22 -42 -30 -77 -19 -61 -43 -34 -1 -5 -6 -2 -2 -2 -1 -2 -96 -250 -249 -192 -162 -127 -129 -107 -106
-0 -0 -0 -44 -121 -117 -47 -32 -8 -2 -5 -3 -0 -0 -8 -3 -6 -12 -2 -3 -9 -1 -7 -4 -2 -9 -6 -37 -18 -11 -2 -4 -1 -1 -107 -190 -261 -271 -223 -154 -144 -236 -166
-0 -0 -0 -75 -25 -31 -16 -5 -4 -3 -4 -1 -1 -14 -1 -2 -2 -2 -1 -2 -1 -1 -2 -2 -2 -36 -35 -10 -8 -14 -2 -1 -1 -2 -37 -116 -177 -259 -258 -218 -203 -223 -215
-0 -0 -0 -25 -2 -3 -1 -9 -2 -2 -4 -1 -1 -5 -15 -2 -10 -2 -3 -2 -1 -0 -2 -2 -12 -9 -8 -13 -1 -2 -7 -1 -1 -2 -3 -52 -115 -190 -234 -252 -214 -189 -183
-0 -0 -0 -8 -4 -1 -1 -1 -2 -1 -2 -1 -1 -9 -14 -6 -5 -9 -1 -2 -1 -2 -5 -2 -10 -3 -2 -2 -2 -3 -11 -4 -4 -1 -2 -2 -56 -122 -147 -180 -196 -206 -166
-0 -0 -0 -1 -2 -2 -2 -1 -2 -1 -2 -3 -1 -11 -6 -12 -12 -2 -2 -2 -6 -5 -2 -1 -2 -3 -2 -1 -4 -5 -2 -1 -1 -14 -3 -0 -2 -21 -111 -124 -126 -159 -174
-0 -0 -0 -0 -1 -1 -2 -1 -3 -2 -3 -1 -1 -1 -7 -0 -9 -8 -3 -2 -4 -3 -2 -3 -4 -4 -3 -2 -3 -3 -3 -2 -3 -4 -7 -24 -11 -7 -12 -94 -86 -87 -119
-0 -0 -0 -0 -0 -1 -2 -2 -2 -3 -2 -2 -2 -2 -3 -2 -1 -2 -1 -1 -1 -2 -2 -2 -8 -2 -3 -3 -3 -5 -9 -5 -3 -3 -3 -3 -3 -2 -1 -11 -51 -53 -87
-1 -0 -0 -39 -9 -3 -5 -5 -11 -14 -1 -3 -3 -3 -1 -1 -2 -0 -2 -2 -1 -1 -2 -7 -4 -3 -1 -2 -3 -4 -3 -6 -31 -4 -2 -3 -4 -2 -12 -13 -1 -1 -33
-6 -5 -59 -55 -15 -18 -9 -2 -10 -12 -8 -3 -5 -10 -0 -1 -1 -0 -1 -3 -9 -9 -10 -15 -1 -13 -22 -3 -23 -1 -2 -6 -81 -130 -2 -11 -13 -6 -2 -0 -2 -0 -1
-2 -3 -4 -34 -33 -27 -17 -2 -3 -5 -12 -2 -2 -2 -3 -0 -0 -0 -0 -3 -7 -1 -8 -17 -6 -24 -30 -39 -28 -4 -2 -4 -22 -37 -9 -70 -25 -21 -0 -0 -0 -0 -2
-3 -3 -2 -1 -10 -16 -21 -5 -3 -2 -2 -4 -2 -1 -8 -6 -0 -0 -0 -1 -7 -5 -10 -9 -4 -3 -21 -24 -20 -14 -14 -3 -24 -5 -3 -0 -0 -0 -0 -0 -0 -0 -43
-4 -3 -4 -1 -1 -3 -16 -10 -1 -2 -3 -3 -7 -11 -14 -5 -5 -8 -11 -26 -28 -13 -18 -20 -14 -14 -3 -3 -1 -17 -30 -0 -24 -50 -0 -0 -0 -0 -0 -0 -0 -0 -0
-6 -5 -3 -6 -4 -1 -2 -3 -10 -21 -8 -33 -44 -12 -49 -46 -37 -56 -66 -53 -73 -76 -0 -0 -0 -0 -0 -0 -0 -0 -0 -0 -0 -0 -0 -0 -0 -0 -0 -0 -0 -0 -0
Wind_Speed
25 24 19 19 17 16 16 18 23 24 24 24 24 25 26 27 27 27 27 26 27 26 26 25 26 27 27 25 24 26 26 25 24 24 23 21 19 16 14 10 16 15 14
23 22 23 22 22 23 23 23 24 24 24 24 25 25 26 26 27 27 27 27 28 29 29 29 29 29 29 29 29 29 28 27 26 26 25 24 19 15 14 13 14 14 13
24 24 25 24 23 23 22 22 23 24 24 25 25 23 21 26 26 28 22 28 28 27 27 27 29 29 30 29 29 29 28 26 24 22 26 26 23 17 14 15 16 17 16
20 25 23 23 23 21 22 22 23 23 25 25 23 21 11 22 25 13 22 24 24 24 27 27 28 28 27 27 27 27 26 24 21 18 19 21 27 24 20 18 18 17 17
19 21 21 22 22 21 21 12 8 16 21 22 21 18 13 10 10 16 20 22 24 24 25 26 26 25 25 25 25 24 22 22 20 18 22 27 26 25 24 22 20 19 18
16 16 21 22 21 15 9 6 14 12 17 19 19 14 17 16 15 19 20 22 23 24 25 25 24 23 23 23 23 22 21 20 19 22 24 23 26 26 25 24 22 21 20
19 19 21 22 23 22 17 14 15 17 17 18 17 17 17 16 19 19 19 21 23 25 25 24 23 23 21 21 21 20 20 19 17 23 21 25 25 24 24 24 23 22 21
23 20 22 22 23 20 18 19 17 17 17 17 15 17 17 17 17 18 20 22 24 24 24 24 23 21 20 19 19 18 17 17 20 23 23 23 24 23 23 22 22 21 21
22 16 23 24 22 19 18 19 17 18 16 16 17 18 17 18 18 19 21 22 24 24 23 22 20 19 18 17 17 17 17 16 16 23 24 23 23 22 21 21 21 21 20
23 17 21 24 24 21 19 17 18 17 17 18 19 20 20 19 19 21 22 21 21 21 21 19 18 17 16 16 16 17 16 14 15 22 23 23 23 22 21 20 18 20 20
24 22 24 19 22 14 15 20 21 19 20 22 23 22 23 22 21 21 10 14 19 20 20 19 17 15 15 15 16 16 14 14 18 17 22 22 21 19 20 18 18 19 19
24 24 24 12 23 27 7 28 23 25 24 21 19 19 19 11 11 7 13 19 20 20 19 18 17 15 12 15 16 14 11 15 16 16 20 19 18 17 17 18 17 17 17
24 24 25 9 27 27 25 28 28 22 18 15 15 15 11 16 18 21 15 21 20 19 16 16 15 13 15 12 11 15 12 12 13 17 19 17 16 15 15 15 15 15 15
24 25 25 24 27 8 20 26 18 10 15 20 8 18 16 21 17 16 13 12 18 12 14 14 14 16 12 11 11 12 11 11 15 14 15 16 13 13 13 12 13 13 13
25 25 21 23 14 10 26 10 24 4 25 5 21 14 15 12 14 18 10 15 15 15 14 3 16 6 13 12 10 10 12 11 12 10 13 13 12 12 12 11 11 10 10
24 25 20 25 26 24 15 18 21 21 10 20 17 13 15 15 15 13 18 15 16 17 17 17 18 18 17 13 6 10 11 13 11 10 4 12 11 11 12 11 10 10 11
22 22 16 26 26 17 14 22 24 8 24 11 17 18 17 17 15 18 17 20 19 18 19 9 20 10 10 12 8 9 10 10 10 8 9 9 10 10 11 10 9 10 11
18 17 15 20 11 14 18 21 24 24 18 20 17 19 17 19 19 20 20 20 18 22 23 22 23 24 24 24 21 21 19 13 10 11 7 10 15 9 8 10 8 8 10
11 11 10 9 9 3 9 20 23 21 24 21 21 17 10 21 22 22 24 23 21 25 24 25 26 25 26 25 22 21 19 17 14 9 19 16 12 4 11 8 8 7 8
8 9 6 2 15 8 9 17 23 22 16 27 23 23 11 17 15 22 26 24 24 27 26 24 24 27 26 22 26 27 17 10 16 14 5 6 12 9 8 7 6 5 10
7 7 7 3 2 8 4 13 3 6 2 5 9 15 17 19 22 16 24 26 16 22 24 25 27 28 27 27 27 26 27 21 9 7 8 7 21 7 22 4 5 16 5
10 7 7 6 2 0 5 8 14 13 10 3 11 13 15 23 22 24 25 26 27 26 29 28 27 28 29 28 27 28 27 24 23 24 20 23 21 23 26 26 26 23 9
11 9 9 8 5 3 4 3 6 12 19 18 15 16 14 15 19 20 21 22 24 25 27 28 28 26 28 30 28 24 25 23 26 18 22 25 23 24 25 26 23 26 22
12 10 8 6 5 4 5 7 6 10 10 10 14 14 11 16 18 18 19 20 22 25 23 25 24 24 21 18 22 19 21 24 26 26 25 19 22 24 22 23 27 23 23
10 8 8 4 4 4 5 6 8 9 16 23 23 15 16 17 16 17 18 19 21 21 23 24 26 26 26 25 22 23 23 24 20 25 28 26 27 26 21 25 22 25 24
5 4 4 4 4 4 4 6 15 28 26 28 31 26 19 16 16 16 17 19 21 22 23 24 25 24 25 24 24 22 23 24 25 26 27 27 28 29 29 25 25 22 23
Wind_Direction
118 105 171 165 170 175 172 50 89 87 90 85 80 92 88 102 93 85 84 74 75 70 69 69 70 76 75 61 55 68 72 71 70 67 63 49 38 30 15 337 62 44 43
96 88 147 147 139 127 113 90 96 90 92 86 89 108 109 84 87 83 76 73 80 88 99 109 106 102 89 83 84 85 87 92 90 86 82 65 44 27 18 11 38 44 46
92 96 107 124 125 99 92 81 97 93 105 107 114 138 147 108 80 103 63 82 114 121 126 126 118 114 104 102 96 89 96 109 113 111 100 79 64 36 29 32 36 53 60
79 103 92 114 111 85 85 85 103 120 115 121 139 152 186 132 113 172 144 131 136 136 132 129 124 120 116 111 105 104 108 118 124 122 127 117 89 89 63 51 55 60 68
69 78 80 90 98 83 80 70 218 177 149 148 156 169 185 192 187 168 154 148 143 140 136 132 128 125 121 116 113 115 121 125 125 121 115 93 96 100 94 90 80 68 76
55 51 78 93 84 44 356 286 194 199 173 167 167 185 174 177 177 163 160 153 149 143 138 135 132 130 127 121 116 118 127 131 131 116 112 109 97 102 105 99 88 88 91
75 71 79 88 104 140 184 192 190 179 178 174 177 178 176 177 168 167 166 159 151 143 137 135 134 131 131 127 122 121 124 130 131 114 114 91 96 107 107 107 105 99 95
97 75 85 98 142 164 178 176 183 180 176 179 185 177 175 175 174 173 167 159 151 146 140 138 135 134 133 130 127 126 131 133 115 112 109 107 112 114 114 110 114 111 105
96 55 100 112 153 174 181 181 184 181 184 182 178 172 177 175 175 171 167 160 152 148 147 145 143 140 138 135 130 129 134 132 134 107 105 108 106 105 107 121 115 117 121
113 66 84 141 146 167 180 188 184 186 182 179 174 170 170 171 172 168 163 164 163 157 155 154 151 149 144 139 135 133 135 138 136 102 102 92 97 97 122 115 122 130 128
135 107 116 103 168 198 189 178 175 180 177 168 165 165 165 169 171 171 210 199 178 167 156 151 154 156 154 146 133 135 136 128 124 119 91 97 105 118 108 118 123 130 134
132 128 136 99 160 147 37 147 169 166 169 176 186 183 186 214 220 241 214 186 170 160 155 144 142 151 162 135 119 134 141 112 110 110 80 92 103 117 117 119 118 127 136
132 131 147 52 157 150 117 154 148 177 194 204 204 208 220 208 201 183 216 172 160 158 160 139 135 142 90 122 155 75 125 129 118 96 83 102 112 113 128 130 129 133 127
130 136 127 118 151 234 191 170 196 217 208 195 256 198 206 182 203 220 243 256 191 319 280 177 219 306 177 124 114 109 169 161 101 108 84 97 118 133 130 134 136 132 112
139 134 103 116 217 235 179 228 187 293 162 326 179 223 227 247 238 201 289 247 250 249 4 169 334 302 98 137 166 129 213 160 199 145 78 96 114 135 147 147 144 152 136
129 138 104 130 153 179 226 214 201 202 263 207 222 257 243 246 252 269 233 246 261 272 299 298 302 278 255 217 157 172 189 198 171 148 114 107 117 135 152 157 160 164 165
129 125 101 146 149 204 238 213 204 280 184 280 237 246 256 251 279 256 273 239 272 302 251 42 308 54 161 202 151 177 188 160 179 109 176 103 130 133 132 148 158 166 176
125 118 106 129 99 236 231 225 213 220 252 246 268 264 275 271 273 268 233 245 312 258 262 269 267 295 273 280 253 249 236 209 181 190 143 180 210 126 143 143 139 158 172
115 114 105 108 96 34 288 245 237 251 247 253 266 290 327 277 274 286 255 271 310 269 258 277 268 282 287 272 253 247 242 227 207 186 328 220 204 147 165 124 135 138 158
117 122 113 33 264 296 290 269 254 262 283 250 270 271 323 303 312 292 272 292 298 266 275 301 303 283 269 247 281 282 229 194 216 208 79 158 193 25 195 83 73 150 174
123 130 136 128 317 296 340 292 7 331 79 157 313 305 303 305 297 318 294 285 326 304 294 297 288 283 274 291 300 269 285 237 167 61 70 60 324 41 319 41 50 248 103
137 138 146 157 167 253 318 316 295 304 318 334 311 314 309 294 299 295 297 291 292 294 294 297 302 300 295 300 306 297 274 292 312 279 331 320 326 318 300 305 307 319 14
148 146 157 164 181 219 276 315 325 308 299 306 307 308 314 309 306 308 307 306 304 305 306 303 305 308 303 292 299 309 304 306 301 328 330 313 322 316 310 308 329 310 330
164 161 164 171 192 232 251 288 287 301 303 306 306 306 318 314 311 310 311 312 314 312 317 315 319 324 322 325 314 321 311 311 305 304 312 333 333 329 332 323 313 325 328
170 171 173 186 207 230 246 259 289 283 299 301 301 302 306 307 309 311 315 318 317 319 319 321 319 317 308 304 311 309 309 308 316 311 308 313 313 317 329 326 333 322 320
182 206 210 193 180 191 228 276 295 292 299 295 294 297 294 292 297 308 315 316 318 320 318 317 316 320 311 308 305 311 307 304 304 311 311 313 312 308 307 314 322 328 326